User: anonymous   Login
Location: Eindhoven
(51.4416°N, 5.4697°E)
Time: 05:29:37
(UTC+01:00)
Language:

Vanguard 2 Rocket - Orbit

View from above orbital plane
View from above orbital plane
View from above satellite
View from above satellite

Ground track
Ground track

The orbit data is extracted from the following two-line orbital elements,

1    12U 59001B   19322.57458801 +.00000041 +00000-0 +29940-4 0  9996
2    12 032.9014 012.2540 1666053 042.0046 329.6952 11.44314954255702
Epoch (UTC): 18 November 2019 13:47:24
Eccentricity: 0.1666053
inclination: 32.9014°
perigee height: 554 km
apogee height: 3326 km
right ascension of ascending node: 12.2540°
argument of perigee: 42.0046°
revolutions per day: 11.44314954
mean anomaly at epoch: 329.6952°
orbit number at epoch: 25570

The dashed part of the orbit path shows where the satellite is in the earth's shadow,  

DLR